Regional Weather Roundup
Issued by NWS Upton, NY

Current Version | Previous Version | Text Only | Print | Product List | Glossary Off
Versions: 1 2 3 4 5 6 7 8 9 10 11 12 13 14 15 16 17 18 19 20 21 22 23 24 25 26 27 28 29 30 31 32 33 34 35 36 37 38 39 40 41 42 43 44 45 46 47 48 49 50
810 ASUS41 KOKX 241108 RWROKX REGIONAL WEATHER ROUNDUP NATIONAL WEATHER SERVICE NEW YORK NY 600 AM EST TUE JAN 24 2017 NOTE: "FAIR" INDICATES FEW OR NO CLOUDS BELOW 12,000 FEET WITH NO SIGNIFICANT WEATHER AND/OR OBSTRUCTIONS TO VISIBILITY. NYZ071-072-176-178-NJZ106-104-241200- NEW YORK CITY METRO AREA CITY SKY/WX TMP DP RH WIND PRES REMARKS Central Park MIX PCPN 35 35 100 N8G22 29.39S FOG WCI 29 Wall St Helipt LGT RAIN 39 36 89 N9G17 29.37S WCI 33 LaGuardia APRT LGT RAIN 39 35 86 N16G25 29.37R FOG WCI 30 Kennedy INTL LGT RAIN 39 36 89 N24G30 29.35R FOG WCI 28 Breezy Point N/A 36 N/A N/A N18G29 N/A WCI 25 Newark/Liberty LGT RAIN 36 34 92 N20 29.37F FOG WCI 25 Teterboro LGT RAIN 36 34 92 N12G21 29.38S FOG WCI 28 $$ NYZ177-179-078>081-241200- LONG ISLAND NEW YORK CITY SKY/WX TMP DP RH WIND PRES REMARKS Jones Beach N/A 39 N/A N/A NE24G30 N/A WCI 28 Matinecock PT N/A 37 N/A N/A NE28 N/A WCI 25 Farmingdale LGT RAIN 39 37 92 NE17G36 29.32R FOG WCI 30 MacArthur/ISP LGT RAIN 40 39 97 NE25G37 29.30S FOG WCI 29 Shirley LGT RAIN 40 39 97 NE14G24 29.32S FOG WCI 32 Westhampton CLOUDY 41 37 86 NE25G38 29.31S Southampton NOT AVBL Bridgehampton NOT AVBL East Hampton CLOUDY 41 37 88 NE18G33 29.31F Montauk NOT AVBL $$ NYZ052-065-067-241200- HUDSON VALLEY CITY SKY/WX TMP DP RH WIND PRES REMARKS White Plains LGT RAIN 36 33 89 N13G22 29.36R FOG WCI 27 Newburgh FRZ DRZL 34 32 93 NE21G29 29.44S FOG WCI 22 Montgomery LGT SNOW 34 31 88 NE17G25 29.44R FOG WCI 23 Poughkeepsie CLOUDY 32 31 96 N12 29.45S FOG WCI 23 Albany LGTSLEET 33 30 88 N7 29.57R WCI 27 $$ NJZ001-105-106-008-010-013-015-019>022-104-241200- NEW JERSEY CITY SKY/WX TMP DP RH WIND PRES REMARKS Newark/Liberty LGT RAIN 36 34 92 N20 29.37F FOG WCI 25 Teterboro LGT RAIN 36 34 92 N12G21 29.38S FOG WCI 28 Caldwell LGT RAIN 35 33 92 N7G17 29.40S FOG WCI 29 Somerville CLOUDY 36 33 89 N8 29.37F FOG WCI 30 Linden DRIZZLE 36 34 92 NE10G20 29.38R WCI 28 Sussex MIX PCPN 34 32 92 NE13G24 29.42F FOG WCI 25 Andover N/A 32 31 96 NE8 29.42S WCI 25 Trenton MIX PCPN 36 34 92 N14 29.37S FOG WCI 27 Millville CLOUDY 39 37 92 N17G24 29.34R WCI 30 Atlantic City CLOUDY 39 36 89 N20 29.29F FOG WCI 29 Wrightstown LGT RAIN 37 35 94 N16 29.32S WCI 28 Toms River LGT RAIN 38 37 97 N14G21 29.32S FOG WCI 30 Belmar MIX PCPN 37 36 96 N17G25 29.32S FOG WCI 27 $$ PAZ047>061-062-071-241200- EASTERN PENNSYLVANIA CITY SKY/WX TMP DP RH WIND PRES REMARKS Philadelphia CLOUDY 37 34 89 N15 29.39R WCI 28 Allentown CLOUDY 37 33 85 N8 29.44R WCI 31 Scranton LGT SNOW 34 33 96 NE5 29.47S FOG WCI 30 $$ CTZ002-004>006-009-010-012-RIZ004-006-007-MAZ004-011-015-241200- SOUTHERN NEW ENGLAND IN CT CITY SKY/WX TMP DP RH WIND PRES REMARKS Bradley INTL LGT RAIN 34 30 85 N21G32 29.49F WCI 22 Hartford CLOUDY 35 32 88 N12G20 29.46F WCI 27 Danbury CLOUDY 34 30 85 NE18G25 29.40R WCI 23 Wtrbury/Oxford LGT RAIN 34 28 80 E25G40 29.35R FOG WCI 21 Bridgeport LGT RAIN 39 34 82 NE23G36 29.35F WCI 28 Meriden LGT RAIN 35 31 85 N13G22 29.41F FOG WCI 26 New Haven CLOUDY 39 35 86 NE20G32 29.34F WCI 29 Chester CLOUDY 39 36 87 NE16G32 29.36F WCI 30 Groton CLOUDY 42 37 82 NE32G44 29.34F Wilimantic CLOUDY 39 35 86 NE23G33 29.43F WCI 28 IN RI CITY SKY/WX TMP DP RH WIND PRES REMARKS Providence LGT RAIN 40 37 89 NE23G36 29.45F FOG WCI 30 Block Island NOT AVBL Westerly CLOUDY 42 36 79 NE22G37 29.37S IN MA CITY SKY/WX TMP DP RH WIND PRES REMARKS Boston LGT RAIN 39 37 92 NE33G46 29.55F FOG WCI 27 Worcester LGT SNOW 28 26 92 NE17G38 29.48F VSB 3/4 WCI 16 Westfield LGT RAIN 33 29 85 N15 29.52R WCI 23 Provincetown LGT RAIN 44 42 93 E26G38 29.43F FOG Nantucket LGT RAIN 49 47 93 E16G24 29.31F FOG $$ ANZ330-335-338-340-345-350-353-355-241200- COASTAL MARINE OBSERVATIONS STATION/POSITION TIME SKY/WX TEMP WIND PRES VSBY WAVE AIR SEA DIR/SP/G HT/PER (UTC) (F) (DEG/KT/KT) (MB) (MI) (FT/S) NY HARB ENTRANCE 0950 40 43 20/ 21/ 29 991.4 14/12 20 S FIRE ISLAND 1050 44 46 40/ 31/ 37 989.0 17/11 GREAT SOUTH BAY NOT AVBL 23 SSW MONTAUK P 1050 44 47 40/ 35/ 47 989.7 17/11 15 E BARNEGAT LI 1030 45 N/A 17/11 HUDSON CANYON 1050 53 51 986.8 16/11 KINGS POINT NOT AVBL EXECUTION ROCKS 1045 38 20/ 17/ 23 N/A CENTRAL LI SOUND 1030 41 60/ 27/ 37 N/A 6/ 5 EASTERN LI SOUND NOT AVBL ROBBINS REEF 1042 36 360/ 18/ 21 994.3 $$ >>>>>>>>>>>>>>>>>>>>>>>>>>>> KEY <<<<<<<<<<<<<<<<<<<<<<<<<<< > < > SKY/WX - Sky Condition/Present Weather < > TMP - Temperature in Fahrenheit < > DP - Dew Point in Fahrenheit < > RH - Relative Humidity in Percent < > WIND - Direction (from) and Speed in MPH < > PRES - Mean Sea Level Pressure (inches of Hg) < > WCI - Wind Chill Index < > VSB - VISIBILITY IN MILES < > HX - HEAT INDEX < > TC - TEMPERATURE IN CELSIUS < > VRB - VARIABLE WIND DIRECTION < > < >>>>>>>>>>>>>>>>>>>>>>>>>>>> KEY <<<<<<<<<<<<<<<<<<<<<<<<<<<

USA.gov is the U.S. government's official web portal to all federal, state and local government web resources and services.